Regional Weather Roundup
Issued by NWS Jackson, KY

Home | Current Version | Previous Version | Graphics & Text | Print | Product List | Glossary On
Versions: 1 2 3 4 5 6 7 8 9 10 11 12 13 14 15 16 17 18 19 20 21 22 23 24 25 26 27 28 29 30 31 32 33 34 35 36 37 38 39 40 41 42 43 44 45 46 47 48 49 50
454
ASUS43 KJKL 071610
RWRJKL

EAST KENTUCKY HOURLY WEATHER ROUNDUP
NATIONAL WEATHER SERVICE JACKSON KY
1100 AM EST SUN FEB 07 2016

NOTE: "FAIR" INDICATES FEW OR NO CLOUDS BELOW 12,000 FEET WITH
NO SIGNIFICANT WEATHER AND/OR OBSTRUCTIONS TO VISIBILITY.

* THESE REPORTS ARE NOT UNDER NWS QUALITY CONTROL AND MAY NOT
  REPORT WEATHER SUCH AS PRECIPITATION AND FOG.

KYZ079-080-083-085-087-088-110-112-115-119-120-071700
...EASTERN KENTUCKY...

CITY           SKY/WX    TMP DP  RH WIND       PRES   REMARKS
JACKSON        SUNNY     42  26  53 CALM      30.15S
LONDON         SUNNY     41  25  53 SW5       30.17S
SOMERSET*      SUNNY     39  28  65 SW3       30.20S
MONTICELLO*    SUNNY     46  25  43 W14       30.19F
WILLIAMSBURG*  SUNNY     41  25  52 CALM      30.18F
MIDDLESBORO*   SUNNY     39  28  64 CALM      30.18F
HARLAN APT*      N/A     39  25  56 CALM      30.16S
HAZARD APT*    SUNNY    N/A N/A N/A CALM      30.16S
BLACK MTN*       N/A     30  23  74 NW5         N/A  WCI  25
BIG SANDY*     SUNNY     43  27  53 W3        30.14F
MOREHEAD APT*  SUNNY     43  25  49 SW8G14    30.15F
$$

KYZ035-036-041-042-044-050-067-078-099-071700
...CENTRAL KENTUCKY...

CITY           SKY/WX    TMP DP  RH WIND       PRES   REMARKS
MT STERLING*   SUNNY     43  27  52 SW7       30.14F
DANVILLE*      SUNNY     43  28  56 S3        30.15F
RICHMOND*      SUNNY     45  23  42 SW7       30.14F
LEXINGTON      SUNNY     46  25  43 SW13      30.12F
FRANKFORT      SUNNY     47  21  35 SW14      30.10F
$$

KYZ091>093-OHZ055-061-077-WVZ005-015-034-035-042-071700
...SOUTHERN OHIO/WEST VIRGINIA...

CITY           SKY/WX    TMP DP  RH WIND       PRES   REMARKS
COVINGTON      PTSUNNY   42  23  46 S10       30.07F
COLUMBUS       PTSUNNY   41  22  46 SW12      30.06F
DAYTON         CLOUDY    42  26  53 SW10      30.04F
WILMINGTON     SUNNY     44  27  51 S10       30.06F
HUNTINGTON       N/A     43  26  51 SW7       30.14S
CHARLESTON       N/A     43  26  51 VRB3      30.14S
PINEVILLE*       N/A     41  21  43 MISG      30.18F
BECKLEY          N/A     40  21  46 N5        30.10F
$$

VAZ002-007-008-TNZ017-027-036-066-071-071700
...SOUTHWEST VIRGINIA/EAST TENNESSEE...

CITY           SKY/WX    TMP DP  RH WIND       PRES   REMARKS
BRISTOL        MOSUNNY   38  25  59 S6        30.16F WCI  33
KNOXVILLE      SUNNY     41  26  55 VRB3      30.20S
OAK RIDGE      SUNNY     45  26  47 S5        30.20S
CROSSVILLE     SUNNY     47  21  35 NW9       30.17F
NASHVILLE      PTSUNNY   47  25  42 S5        30.19F
$$

...KEY TO REMARKS...
VSB - VISIBILITY IN MILES
WCI - WIND CHILL INDEX
HX  - HEAT INDEX

$$




USA.gov is the U.S. government's official web portal to all federal, state and local government web resources and services.